Wind_Speed
47 47 45 44 43 41 40 40 38 37 36 35 34 33 32 31 30 27 25 21 19 16 14 13 13 12 11 12 13 14 16 18 20 22 24 26 28 31
50 50 49 47 46 44 42 42 41 40 39 38 36 35 35 34 33 30 27 24 22 19 16 15 14 14 13 12 13 14 16 18 19 21 23 25 26 28
54 53 53 52 50 48 46 44 43 43 43 40 39 38 38 36 35 33 30 27 25 22 19 17 16 15 14 13 14 15 16 17 19 21 22 24 25 27
58 57 57 56 55 52 50 48 46 45 45 43 41 40 39 39 38 36 33 31 28 25 22 19 18 17 15 15 15 15 16 17 19 20 22 23 25 27
62 61 61 60 59 57 54 52 49 48 47 47 45 43 42 41 40 38 36 34 32 29 25 22 19 18 16 16 16 16 16 17 18 20 21 22 23 25
62 63 63 63 62 61 59 57 54 51 50 49 48 46 44 43 42 40 39 37 35 32 28 25 21 19 18 17 17 16 17 17 18 19 20 21 22 23
61 62 63 64 64 64 63 61 59 56 52 51 50 49 47 45 44 43 41 40 37 34 31 27 24 21 19 18 17 17 17 17 18 18 19 20 21 21
57 58 60 63 65 65 64 63 62 60 57 54 51 50 48 47 46 45 43 42 40 37 34 30 26 23 21 19 18 18 17 17 18 19 19 19 19 20
51 53 56 58 62 64 65 64 64 62 60 57 55 52 51 48 47 46 45 44 42 39 36 32 28 25 22 20 18 18 18 18 18 18 17 18 18 18
47 50 52 53 56 60 63 64 64 64 62 60 58 55 53 51 49 48 46 45 44 41 38 34 30 27 24 21 19 18 18 18 17 17 17 17 17 18
42 45 48 49 50 53 58 61 63 64 64 62 60 58 55 51 50 49 47 45 43 42 39 35 32 29 26 23 20 19 18 18 17 17 17 16 16 17
35 40 44 44 45 47 51 55 59 61 62 62 61 60 57 54 51 49 48 47 44 42 39 37 34 31 28 24 22 20 19 18 18 18 17 17 17 17
28 33 38 40 42 43 45 49 53 57 59 60 60 60 59 55 51 49 47 45 44 42 40 38 35 32 29 26 23 22 20 19 18 18 18 18 18 18
24 29 33 36 37 39 41 44 48 52 55 56 58 57 57 56 54 50 47 44 43 43 41 39 36 33 31 28 25 23 21 19 18 17 18 18 19 19
20 25 28 31 33 35 37 39 42 46 51 54 54 54 53 54 54 51 47 45 42 43 41 40 38 34 32 29 26 24 22 20 19 18 18 19 19 19
19 22 25 27 28 30 33 35 37 41 45 49 51 52 51 51 51 50 49 46 43 44 43 41 38 35 32 30 27 25 23 21 20 20 20 19 19 19
16 20 22 23 25 26 29 31 33 36 40 43 46 48 50 48 49 49 48 46 43 42 41 39 37 36 33 30 28 25 24 23 21 20 20 20 20 20
15 19 20 21 22 24 27 29 31 33 36 40 42 44 46 47 46 46 46 46 44 43 42 40 37 34 33 31 27 25 24 23 22 21 21 20 19 19
13 15 18 19 20 23 25 27 29 32 34 37 40 42 44 45 45 44 44 43 43 42 43 40 37 34 32 30 28 26 24 23 22 21 21 21 20 19
12 14 16 17 19 21 23 25 28 30 33 36 39 41 42 43 44 44 43 42 41 42 41 40 38 35 32 31 30 28 25 24 22 22 21 20 20 19
11 13 15 16 18 20 21 23 26 28 31 36 38 40 42 43 43 43 42 41 41 41 41 40 38 38 37 33 30 28 26 24 23 22 21 20 19 19
10 13 15 16 17 19 20 22 25 26 29 34 37 40 42 42 43 42 42 42 40 39 41 41 40 38 36 33 30 29 27 26 24 22 21 20 20 19
10 12 15 16 18 19 20 22 24 25 28 33 36 38 41 43 44 44 44 43 41 40 40 41 40 38 35 32 31 29 28 27 25 23 22 22 22 22
Wind_Direction
255 254 253 251 249 245 239 236 234 230 226 222 219 217 215 212 212 211 212 213 215 220 226 233 239 243 248 253 257 259 259 257 255 253 252 252 251 249
256 252 251 250 247 245 242 238 233 230 227 223 220 218 217 214 214 212 213 214 217 221 227 234 241 246 250 257 262 264 263 260 258 257 256 254 254 254
255 251 249 247 246 245 242 239 234 231 228 225 221 219 218 217 216 214 214 216 219 223 228 235 242 249 253 259 265 267 266 264 262 260 260 259 258 257
253 249 247 245 243 242 240 237 234 230 227 225 222 220 219 218 217 216 215 218 221 224 228 235 242 248 254 261 268 270 269 268 265 263 262 261 260 260
252 247 244 242 240 239 238 236 233 230 227 225 223 221 221 220 219 217 217 219 222 225 229 234 240 247 253 261 269 272 272 271 268 265 265 264 263 262
250 246 242 240 238 236 235 234 232 230 228 226 224 222 222 222 221 219 218 220 222 225 229 233 239 246 252 261 268 272 273 272 270 267 265 266 267 267
248 244 241 238 236 235 233 232 231 229 228 226 224 223 223 223 222 221 220 220 222 225 228 231 237 244 251 259 266 270 273 272 270 267 267 268 268 267
246 242 239 237 234 233 232 230 229 228 227 227 224 222 223 223 223 222 221 220 222 224 226 229 235 242 248 256 263 268 271 271 269 269 267 267 267 264
242 239 236 235 233 231 230 229 228 227 227 227 225 222 222 222 223 222 221 220 221 223 225 229 233 239 245 252 258 264 268 269 269 267 266 263 264 263
238 235 233 233 231 230 228 228 227 227 226 225 226 224 223 223 224 222 221 220 220 221 224 229 232 237 242 248 254 261 264 266 267 266 265 262 260 259
236 232 229 228 227 227 227 227 226 226 225 225 225 225 224 224 224 225 223 221 221 220 222 227 230 234 239 244 251 257 260 263 263 263 260 258 258 255
232 227 224 223 223 223 224 225 225 224 224 224 224 224 224 224 224 224 224 221 220 220 221 225 228 232 236 241 247 252 256 260 260 258 256 256 256 252
226 220 217 218 219 219 220 222 223 223 223 223 222 223 224 224 223 223 224 223 221 219 220 223 226 230 234 238 243 248 252 256 257 256 254 253 252 252
217 213 212 213 214 215 216 218 221 221 221 222 221 220 222 225 225 224 225 225 221 218 220 223 225 229 232 236 240 244 249 251 253 255 253 252 252 253
207 206 207 209 210 213 214 215 218 219 220 220 220 219 220 223 225 224 224 223 221 219 220 222 225 229 232 235 238 241 246 248 252 254 254 252 250 251
200 198 200 202 206 208 209 211 214 216 217 218 219 220 220 220 220 221 223 223 222 220 221 223 224 228 230 233 236 238 241 246 251 254 254 252 251 251
191 192 194 196 199 201 204 206 208 209 212 214 215 217 218 219 220 219 221 223 223 221 220 221 225 227 229 232 235 237 241 246 251 254 254 252 251 251
184 186 188 190 194 197 199 201 202 203 205 208 209 211 215 217 218 219 222 224 225 224 223 223 226 228 229 230 233 237 242 245 249 253 254 254 253 250
182 185 187 190 194 196 196 197 197 198 200 202 204 206 208 212 214 216 217 220 221 221 220 221 224 225 225 228 233 236 240 244 248 250 251 252 250 249
189 192 192 194 196 196 196 196 194 194 197 198 198 199 202 205 209 211 213 215 217 217 216 218 220 221 223 227 231 234 238 244 247 247 248 247 246 247
197 197 195 195 196 196 196 196 195 194 196 195 195 198 200 202 204 206 209 210 212 214 214 214 216 219 222 227 230 233 237 241 244 245 245 243 242 244
204 202 202 201 201 200 200 199 196 194 195 195 194 196 197 199 200 202 203 205 207 210 211 211 214 217 221 224 227 231 235 238 242 243 241 240 240 241
210 208 209 210 210 209 207 204 201 199 195 193 194 195 197 197 197 198 200 201 203 206 207 210 214 217 220 223 226 231 235 237 240 241 240 240 240 241
Height
5725 5729 5733 5737 5741 5745 5750 5756 5762 5768 5773 5778 5784 5790 5796 5801 5806 5810 5814 5818 5822 5825 5828 5831 5833 5835 5836 5838 5839 5841 5843 5844 5846 5847 5849 5851 5854 5856
5711 5715 5720 5724 5729 5734 5740 5746 5752 5758 5764 5770 5776 5783 5788 5794 5799 5803 5808 5812 5817 5820 5823 5826 5828 5830 5831 5833 5834 5836 5837 5839 5840 5841 5843 5845 5847 5849
5695 5700 5705 5711 5716 5722 5728 5735 5742 5748 5755 5761 5768 5774 5779 5786 5791 5796 5801 5806 5810 5814 5818 5820 5823 5825 5826 5828 5829 5830 5832 5833 5834 5835 5837 5839 5841 5843
5677 5683 5689 5695 5702 5709 5715 5722 5730 5737 5744 5751 5758 5764 5770 5776 5782 5788 5794 5799 5804 5808 5812 5815 5817 5820 5821 5822 5824 5825 5826 5827 5828 5829 5831 5832 5834 5835
5657 5663 5670 5678 5686 5694 5702 5709 5717 5725 5732 5740 5748 5755 5760 5767 5773 5780 5786 5792 5797 5802 5806 5809 5812 5814 5816 5817 5818 5819 5820 5821 5822 5823 5825 5826 5827 5828
5634 5642 5650 5659 5667 5676 5685 5694 5703 5712 5720 5728 5737 5744 5750 5757 5764 5771 5778 5784 5790 5795 5799 5803 5806 5808 5810 5812 5813 5814 5815 5816 5817 5818 5819 5820 5821 5822
5612 5620 5629 5638 5648 5658 5668 5679 5688 5698 5707 5716 5725 5733 5740 5747 5755 5762 5769 5775 5781 5787 5792 5796 5800 5802 5804 5806 5807 5808 5809 5810 5811 5812 5813 5814 5814 5815
5592 5599 5608 5617 5628 5640 5651 5662 5673 5683 5694 5703 5713 5721 5729 5737 5745 5752 5760 5767 5773 5779 5784 5789 5793 5796 5798 5800 5801 5803 5804 5804 5805 5806 5807 5808 5808 5810
5572 5580 5589 5599 5609 5621 5633 5645 5657 5668 5680 5691 5700 5709 5718 5727 5735 5742 5749 5757 5765 5771 5777 5782 5786 5789 5792 5794 5795 5797 5798 5799 5800 5801 5801 5802 5804 5805
5555 5564 5573 5582 5593 5604 5616 5628 5641 5653 5666 5678 5689 5698 5706 5715 5723 5731 5738 5747 5755 5763 5770 5775 5779 5782 5785 5788 5789 5791 5792 5793 5794 5795 5796 5797 5799 5800
5541 5549 5558 5568 5579 5590 5601 5614 5626 5638 5650 5662 5674 5685 5695 5704 5712 5721 5729 5738 5746 5754 5761 5767 5771 5775 5779 5781 5783 5785 5787 5788 5789 5790 5791 5793 5794 5795
5528 5536 5546 5556 5566 5576 5588 5599 5612 5624 5637 5650 5661 5673 5683 5692 5702 5710 5719 5728 5736 5745 5752 5758 5763 5768 5772 5775 5777 5779 5781 5782 5783 5785 5787 5788 5790 5791
5520 5527 5537 5546 5556 5566 5576 5588 5599 5611 5624 5636 5649 5660 5671 5682 5691 5700 5709 5719 5728 5736 5743 5749 5755 5761 5765 5768 5770 5773 5775 5777 5778 5780 5782 5783 5785 5787
5514 5521 5529 5538 5547 5557 5567 5577 5588 5600 5612 5625 5637 5649 5661 5672 5682 5690 5699 5709 5718 5726 5733 5740 5747 5753 5758 5761 5764 5766 5769 5771 5773 5775 5777 5779 5780 5782
5511 5517 5524 5532 5541 5550 5559 5569 5579 5590 5602 5614 5627 5639 5650 5661 5671 5681 5689 5699 5708 5717 5725 5732 5739 5745 5750 5755 5758 5760 5763 5765 5768 5770 5771 5773 5775 5777
5509 5515 5522 5529 5537 5545 5553 5562 5572 5582 5593 5604 5616 5628 5639 5650 5660 5671 5681 5691 5700 5709 5717 5724 5731 5737 5743 5747 5751 5754 5757 5760 5762 5764 5766 5768 5770 5771
5510 5515 5521 5528 5534 5541 5549 5556 5565 5574 5584 5595 5606 5618 5630 5640 5651 5661 5671 5682 5692 5701 5709 5716 5723 5730 5735 5741 5745 5748 5751 5754 5756 5758 5760 5762 5764 5766
5512 5516 5521 5526 5532 5538 5545 5552 5559 5568 5577 5587 5598 5609 5621 5632 5642 5652 5663 5673 5683 5692 5701 5708 5715 5722 5729 5734 5739 5742 5745 5748 5750 5752 5754 5756 5758 5760
5514 5517 5521 5526 5530 5536 5542 5548 5555 5563 5571 5580 5591 5602 5612 5623 5634 5644 5655 5665 5675 5684 5692 5700 5708 5715 5722 5728 5732 5735 5739 5741 5743 5746 5748 5750 5752 5754
5515 5518 5521 5525 5529 5534 5539 5545 5552 5558 5566 5575 5584 5594 5604 5615 5626 5637 5647 5657 5667 5676 5684 5693 5701 5709 5715 5720 5724 5728 5732 5735 5737 5739 5741 5744 5746 5748
5516 5518 5521 5525 5528 5533 5538 5543 5548 5555 5562 5570 5579 5588 5598 5608 5619 5629 5639 5649 5659 5668 5677 5686 5694 5701 5707 5712 5718 5722 5726 5728 5731 5733 5735 5738 5740 5742
5517 5519 5521 5524 5528 5532 5536 5540 5546 5552 5558 5565 5574 5583 5592 5602 5612 5622 5632 5642 5652 5661 5670 5678 5685 5693 5700 5706 5710 5714 5718 5722 5724 5726 5729 5732 5734 5737
5516 5518 5521 5523 5526 5530 5534 5538 5543 5549 5554 5561 5569 5577 5587 5596 5606 5616 5626 5636 5645 5654 5662 5671 5678 5686 5693 5698 5703 5707 5711 5715 5718 5721 5724 5726 5728 5730